This demonstration page uses our WeatherBlox Daily Observations layout. Learn more.

Left ArrowRight Arrow

Hourly Observations for December 19, 2021

Temp ( °F °C ) Dew Point ( °F °C ) Humidity (%) Winds ( mph kmh ) Pressure ( in mb ) Visibility ( mi km ) Precip ( " mm )
12:51 am 00:51 Clear 39 3.9 23 -5 53 53 ESE 8 13 30.17 1022 10 16 0.00 0.00
1:51 am 01:51 Clear 40 4.4 23 -5 51 51 SE 8 13 30.16 1021 10 16 0.00 0.00
2:51 am 02:51 Clear 36 2.2 22 -5.6 57 57 E 10 17 30.16 1022 10 16 0.00 0.00
3:51 am 03:51 Clear 38 3.3 22 -5.6 52 52 E 7 11 30.16 1021 10 16 0.00 0.00
4:51 am 04:51 Clear 35 1.7 21 -6.1 57 57 ESE 7 11 30.16 1021 10 16 0.00 0.00
5:51 am 05:51 Clear 40 4.4 20 -6.7 45 45 ESE 9 15 30.17 1022 10 16 0.00 0.00
6:51 am 06:51 Clear 38 3.3 20 -6.7 48 48 ESE 10 17 30.20 1023 10 16 0.00 0.00
7:51 am 07:51 Sunny 38 3.3 18 -7.8 44 44 SSE 10 17 30.22 1023 10 16 0.00 0.00
8:51 am 08:51 Sunny 45 7.2 17 -8.3 33 33 E 10 17 30.23 1024 10 16 0.00 0.00
9:51 am 09:51 Sunny 47 8.3 17 -8.3 30 30 SE 9 15 30.23 1024 10 16 0.00 0.00
10:51 am 10:51 Sunny 51 10.6 19 -7.2 28 28 ESE 7 11 30.22 1023 10 16 0.00 0.00
11:51 am 11:51 Sunny 53 11.7 20 -6.7 27 27 VRB 6 9 30.18 1022 10 16 0.00 0.00
12:51 pm 12:51 Sunny 55 12.8 20 -6.7 25 25 E 6 9 30.14 1021 10 16 0.00 0.00
1:51 pm 13:51 Sunny 57 13.9 21 -6.1 25 25 VRB 5 7 30.10 1019 10 16 0.00 0.00
2:51 pm 14:51 Sunny 58 14.4 22 -5.6 25 25 VRB 3 6 30.09 1019 10 16 0.00 0.00
3:51 pm 15:51 Sunny 58 14.4 22 -5.6 25 25 S 7 11 30.09 1019 10 16 0.00 0.00
4:51 pm 16:51 Sunny 56 13.3 23 -5 28 28 SSW 6 9 30.10 1019 10 16 0.00 0.00
5:51 pm 17:51 Clear 51 10.6 23 -5 33 33 Calm 30.11 1020 10 16 0.00 0.00
6:51 pm 18:51 Clear 43 6.1 20 -6.7 40 40 NNE 6 9 30.14 1021 10 16 0.00 0.00
7:51 pm 19:51 Clear 43 6.1 21 -6.1 42 42 E 7 11 30.14 1021 10 16 0.00 0.00
8:51 pm 20:51 Clear 39 3.9 19 -7.2 45 45 E 6 9 30.15 1021 10 16 0.00 0.00
9:51 pm 21:51 Clear 36 2.2 19 -7.2 50 50 Calm 30.16 1021 10 16 0.00 0.00
10:51 pm 22:51 Clear 34 1.1 19 -7.2 54 54 NW 5 7 30.17 1022 10 16 0.00 0.00
11:51 pm 23:51 Clear 34 1.1 20 -6.7 56 56 N 5 7 30.17 1022 10 16 0.00 0.00

Powered by AerisWeather